This demonstration page uses our WeatherBlox Daily Observations layout. Learn more.

Left ArrowRight Arrow

Hourly Observations for April 16, 2019

Temp ( °F °C ) Dew Point ( °F °C ) Humidity (%) Winds ( mph kmh ) Pressure ( in mb ) Visibility ( mi km ) Precip ( " mm )
12:52 am 00:52 Partly Cloudy 54 12.2 45 7.2 72 72 N 9 15 29.75 1008 10 16 0.00 0.00
1:52 am 01:52 Mostly Clear 52 11.1 43 6.1 72 72 N 16 26 29.75 1008 10 16 0.00 0.00
2:52 am 02:52 Clear 51 10.6 43 6.1 74 74 N 14 22 29.75 1008 10 16 0.00 0.00
3:52 am 03:52 Clear 50 10 43 6.1 77 77 N 10 17 29.77 1008 10 16 0.00 0.00
4:52 am 04:52 Mostly Clear 49 9.4 43 6.1 80 80 N 10 17 29.79 1009 10 16 0.00 0.00
5:52 am 05:52 Clear 48 8.9 43 6.1 83 83 N 10 17 29.81 1009 10 16 0.00 0.00
6:52 am 06:52 Mostly Sunny 50 10 43 6.1 77 77 WNW 7 11 29.81 1010 10 16 0.00 0.00
7:52 am 07:52 Mostly Sunny 54 12.2 44 6.7 69 69 VRB 3 6 29.83 1010 10 16 0.00 0.00
8:52 am 08:52 Partly Cloudy 60 15.6 44 6.7 56 56 Calm 29.82 1010 10 16 0.00 0.00
9:52 am 09:52 Mostly Cloudy 59 15 45 7.2 60 60 N 10 17 29.83 1010 10 16 0.00 0.00
10:52 am 10:52 Mostly Cloudy 69 20.6 47 8.3 45 45 ENE 12 19 29.83 1010 10 16 0.00 0.00
11:52 am 11:52 Mostly Cloudy 73 22.8 47 8.3 40 40 NE 10 17 29.82 1010 10 16 0.00 0.00
12:52 pm 12:52 Mostly Cloudy 75 23.9 47 8.3 37 37 ENE 14 22 29.82 1010 10 16 0.00 0.00
1:52 pm 13:52 Mostly Cloudy 77 25 47 8.3 35 35 ESE 13 20 29.80 1009 10 16 0.00 0.00
2:52 pm 14:52 Mostly Cloudy 79 26.1 47 8.3 32 32 E 13 20 29.77 1008 10 16 0.00 0.00
3:52 pm 15:52 Mostly Cloudy 80 26.7 48 8.9 33 33 ESE 13 20 29.75 1007 10 16 0.00 0.00
4:52 pm 16:52 Cloudy 79 26.1 49 9.4 35 35 ESE 15 24 29.75 1007 10 16 0.00 0.00
5:52 pm 17:52 Cloudy 79 26.1 50 10 36 36 ESE 16 26 29.73 1007 10 16 0.00 0.00
6:52 pm 18:52 Mostly Cloudy 78 25.6 51 10.6 39 39 ESE 14 22 29.73 1007 10 16 0.00 0.00
7:52 pm 19:52 Partly Cloudy 74 23.3 52 11.1 46 46 E 12 19 29.72 1007 10 16 0.00 0.00
8:52 pm 20:52 Mostly Cloudy 72 22.2 52 11.1 50 50 E 8 13 29.72 1006 10 16 0.00 0.00
9:52 pm 21:52 Mostly Cloudy 71 21.7 52 11.1 51 51 E 12 19 29.73 1007 10 16 0.00 0.00
10:52 pm 22:52 Cloudy 71 21.7 52 11.1 51 51 E 16 26 29.71 1006 10 16 0.00 0.00
11:52 pm 23:52 Mostly Cloudy 70 21.1 52 11.1 53 53 E 17 28 29.71 1006 10 16 0.00 0.00

Powered by AerisWeather